METAR AND TAF INFORMATION
METAR FOR KIAH
KIAH 230253Z 00000KT 10SM FEW050 BKN160 24/23 A2997 RMK AO2 SLP148 60029 T02390233 58002
KIAH 230153Z 36006KT 10SM FEW030 FEW050 SCT110 BKN150 BKN180 24/23 A2998 RMK AO2 RAB05E29 TSE06 SLP151 VCSH N-E P0000 T02440228
KIAH 230107Z 33006KT 10SM -RA FEW030 SCT065 BKN150 OVC190 24/23 A3001 RMK AO2 RAB05 TSE06 TS MOV NE CB DSNT N NE NW P0000 T02440228
KIAH 230256Z 2303/2406 VRB04KT P6SM SCT020 SCT250
FM231500 VRB04KT 6SM SHRA BR BKN025
FM231800 13005KT 6SM SHRA VCTS OVC030CB
FM240000 VRB02KT P6SM SCT020

 AIRPORT MAP

 RUNWAY INFORMATION
Runway 08L Runway length 9000 ft Runway width 150 ft
Runway elevation 92 ft Runway displaced threshold 0 ft Runway heading 90
Runway 26R Runway length 9000 ft Runway width 150 ft
Runway elevation 95 ft Runway displaced threshold 0 ft Runway heading 270
Runway 08R Runway length 9402 ft Runway width 150 ft
Runway elevation 95 ft Runway displaced threshold 0 ft Runway heading 90
Runway 26L Runway length 9402 ft Runway width 150 ft
Runway elevation 92 ft Runway displaced threshold 0 ft Runway heading 270
Runway 09 Runway length 10000 ft Runway width 150 ft
Runway elevation 91 ft Runway displaced threshold 0 ft Runway heading 90
Runway 27 Runway length 10000 ft Runway width 150 ft
Runway elevation 84 ft Runway displaced threshold 0 ft Runway heading 270
Runway 15L Runway length 12001 ft Runway width 150 ft
Runway elevation 97 ft Runway displaced threshold 0 ft Runway heading 152
Runway 33R Runway length 12001 ft Runway width 150 ft
Runway elevation 86 ft Runway displaced threshold 0 ft Runway heading 332
Runway 15R Runway length 9999 ft Runway width 150 ft
Runway elevation 95 ft Runway displaced threshold 0 ft Runway heading 152
Runway 33L Runway length 9999 ft Runway width 150 ft
Runway elevation 88 ft Runway displaced threshold 0 ft Runway heading 332

 AIRPORT FREQUENCIES
Type APP Name APP Frequency 120.05 MHZ
Type ATIS Name ATIS Frequency 124.05 MHZ
Type CLD Name CLNC DEL Frequency 128.1 MHZ
Type DEP Name DEP Frequency 119.7 MHZ
Type DEP Name DEP Frequency 28.14 MHZ
Type GND Name GND Frequency 118.575 MHZ
Type RDO Name MONTGOMERY Frequency 122.4 MHZ
Type TWR Name TWR Frequency 120.725 MHZ
Type TWR Name TWR Frequency 29.02 MHZ
Type UNIC Name UNICOM Frequency 122.95 MHZ

 AIRPORT NEAR NAVIGATION AIDS
Type NDB Name Nixin Frequency 326 KHZ

-